period_start,C,m1,H,J0,J1,J2,J3,J4,J5,JA,JB,JC,JD,JJ,JK,JN,#
2016-09-05 00:03:50,-0.00,0.01,0.00,26.96,30.34,33.18,14.37,47.37,1025.41,2022.99,3532.40,3121.99,3545.15,600.15,593.44,2.42,0000 0000 0000 0000 000000
2016-09-05 00:08:51,0.00,0.01,0.00,26.95,30.32,33.12,14.37,47.35,1025.39,2022.99,3532.38,3121.99,3545.13,599.77,593.06,2.47,0000 0000 0000 0000 000000
2016-09-05 00:13:52,-0.01,0.01,0.00,26.96,30.31,33.13,14.34,47.23,1025.27,2022.99,3532.75,3121.99,3545.42,599.63,592.80,2.52,0000 0000 0000 0000 000000
2016-09-05 00:18:53,-0.00,0.01,0.00,26.94,30.30,33.11,14.43,47.31,1025.05,2022.99,3532.76,3122.00,3545.67,599.89,592.98,2.57,0000 0000 0000 0000 000000
2016-09-05 00:23:54,0.00,0.01,0.00,26.94,30.30,33.10,14.37,47.27,1025.02,2023.03,3532.87,3122.03,3545.91,600.08,593.25,2.62,0000 0000 0000 0000 000000
2016-09-05 00:28:56,-0.00,0.01,0.00,26.92,30.27,33.07,14.38,47.22,1024.98,2023.04,3532.93,3122.03,3545.94,599.87,592.91,2.67,0000 0000 0000 0000 000000
2016-09-05 00:33:57,0.00,0.01,0.00,26.89,30.27,33.08,14.36,47.31,1024.96,2023.10,3532.96,3122.14,3545.97,599.86,593.07,2.72,0000 0000 0000 0000 000000
2016-09-05 00:38:59,0.00,0.01,0.00,26.75,30.26,33.11,14.43,47.24,1024.94,2023.21,3532.98,3122.39,3545.99,599.86,593.24,2.77,0000 0000 0000 0000 000000
2016-09-05 00:44:00,0.02,0.01,0.00,26.52,30.24,33.14,14.43,47.38,1024.93,2023.47,3532.99,3122.71,3545.99,599.79,593.56,2.82,0000 0000 0000 0000 000000
2016-09-05 00:49:02,0.01,0.01,0.00,26.41,30.21,33.14,14.44,47.41,1024.93,2023.75,3532.98,3122.95,3546.00,599.89,594.08,2.87,0000 0000 0000 0000 000000
2016-09-05 00:54:03,0.01,0.01,0.00,26.44,30.17,33.08,14.41,47.35,1024.92,2023.94,3532.99,3122.99,3546.08,600.07,594.23,2.92,0000 0000 0000 0000 000000
2016-09-05 00:59:04,-0.00,0.01,0.00,26.45,30.13,33.00,14.36,47.28,1024.92,2023.99,3533.00,3123.00,3546.74,599.76,593.69,2.97,0000 0000 0000 0000 000000
2016-09-05 01:04:05,-0.01,0.01,0.00,26.40,30.09,32.92,14.44,47.42,1024.92,2024.00,3533.08,3123.24,3546.98,600.20,594.27,3.02,0000 0000 0000 0000 000000
2016-09-05 01:09:06,-0.01,0.01,0.00,26.33,30.04,32.84,14.41,47.28,1024.91,2024.08,3533.59,3123.93,3547.11,600.07,594.31,3.07,0000 0000 0000 0000 000000
2016-09-05 01:14:07,0.04,0.01,0.00,26.27,30.00,32.77,14.48,47.40,1024.90,2024.55,3533.96,3123.99,3547.79,600.13,594.42,3.12,0000 0000 0000 0000 000000
2016-09-05 01:19:09,0.01,0.01,0.00,26.24,29.96,32.71,14.46,47.27,1024.89,2024.92,3533.99,3124.02,3547.97,600.35,594.72,3.17,0000 0000 0000 0000 000000
2016-09-05 01:24:10,-0.01,0.01,0.00,26.17,29.91,32.70,14.51,47.39,1024.74,2024.99,3534.01,3124.34,3548.00,600.26,594.68,3.22,0000 0000 0000 0000 000000
2016-09-05 01:29:12,-0.02,0.01,0.00,26.13,29.87,32.65,14.54,47.43,1024.61,2024.99,3534.42,3124.93,3548.29,600.39,594.59,3.27,0000 0000 0000 0000 000000
2016-09-05 01:34:13,-0.01,0.01,0.00,26.15,29.83,32.58,14.41,47.51,1024.49,2025.03,3534.89,3124.99,3548.91,599.72,594.11,3.32,0000 0000 0000 0000 000000
2016-09-05 01:39:14,0.03,0.01,0.00,26.15,29.79,32.54,14.35,47.43,1024.45,2025.32,3534.99,3125.05,3548.99,599.87,594.24,3.37,0000 0000 0000 0000 000000
2016-09-05 01:44:15,0.02,0.01,0.00,26.09,29.76,32.53,14.49,47.45,1024.46,2025.83,3535.02,3125.55,3549.09,600.07,594.45,3.42,0000 0000 0000 0000 000000
2016-09-05 01:49:16,-0.01,0.01,0.00,26.05,29.73,32.49,14.43,47.48,1024.44,2025.98,3535.27,3125.97,3549.69,600.01,594.50,3.47,0000 0000 0000 0000 000000
2016-09-05 01:54:17,-0.01,0.01,0.00,26.06,29.69,32.46,14.43,47.54,1024.43,2025.99,3535.86,3125.99,3549.97,599.83,594.37,3.52,0000 0000 0000 0000 000000
2016-09-05 01:59:18,0.00,0.01,0.00,26.05,29.66,32.42,14.39,47.38,1024.43,2026.00,3535.99,3126.02,3549.99,599.68,594.11,3.57,0000 0000 0000 0000 000000
2016-09-05 02:04:19,-0.00,0.01,0.00,26.09,29.63,32.38,14.38,47.56,1024.43,2026.12,3535.99,3126.52,3550.15,599.96,594.38,3.62,0000 0000 0000 0000 000000
2016-09-05 02:09:21,0.02,0.01,0.00,26.07,29.60,32.35,14.45,47.48,1024.43,2026.52,3536.01,3126.95,3550.76,600.28,594.72,3.67,0000 0000 0000 0000 000000
2016-09-05 02:14:22,0.03,0.01,0.00,26.05,29.56,32.32,14.37,47.49,1024.42,2026.93,3536.04,3126.97,3550.97,600.08,594.59,3.72,0000 0000 0000 0000 000000
2016-09-05 02:19:23,-0.00,0.01,0.00,26.05,29.54,32.30,14.45,47.41,1024.43,2026.99,3536.27,3126.99,3550.99,599.83,594.31,3.77,0000 0000 0000 0000 000000
2016-09-05 02:24:24,-0.00,0.01,0.00,26.03,29.51,32.29,14.40,47.33,1024.42,2026.99,3536.56,3127.00,3551.00,599.95,594.48,3.82,0000 0000 0000 0000 000000
2016-09-05 02:29:25,-0.00,0.01,0.00,26.08,29.49,32.25,14.42,47.50,1024.39,2026.99,3536.68,3127.03,3551.07,600.09,594.42,3.87,0000 0000 0000 0000 000000
2016-09-05 02:34:27,-0.01,0.01,0.00,26.09,29.46,32.24,14.36,47.41,1024.31,2027.00,3536.91,3127.20,3551.48,600.06,594.40,3.92,0000 0000 0000 0000 000000
2016-09-05 02:39:28,-0.01,0.01,0.00,26.07,29.44,32.22,14.34,47.49,1024.18,2027.02,3536.96,3127.61,3551.88,599.86,594.16,3.97,0000 0000 0000 0000 000000
2016-09-05 02:44:29,0.01,0.01,0.00,26.09,29.42,32.19,14.37,47.52,1024.02,2027.14,3536.98,3127.90,3551.98,599.81,594.01,4.02,0000 0000 0000 0000 000000
2016-09-05 02:49:31,0.02,0.01,0.00,26.06,29.40,32.16,14.36,47.52,1023.98,2027.34,3536.97,3127.95,3551.98,599.91,594.07,4.07,0000 0000 0000 0000 000000
2016-09-05 02:54:32,0.01,0.01,0.00,26.01,29.39,32.17,14.40,47.53,1023.95,2027.63,3536.97,3127.98,3551.99,600.03,594.37,4.12,0000 0000 0000 0000 000000
2016-09-05 02:59:34,0.02,0.01,0.00,26.04,29.37,32.14,14.45,47.67,1023.96,2027.91,3536.98,3127.99,3551.99,600.04,594.24,4.17,0000 0000 0000 0000 000000
2016-09-05 03:04:35,0.00,0.01,0.00,26.09,29.35,32.09,14.45,47.71,1023.94,2027.98,3536.98,3127.99,3551.99,600.28,594.42,4.22,0000 0000 0000 0000 000000
2016-09-05 03:09:36,0.00,0.01,0.00,26.10,29.35,32.03,14.37,47.73,1023.95,2027.97,3536.99,3127.99,3551.99,599.62,593.70,4.27,0000 0000 0000 0000 000000
2016-09-05 03:14:38,0.00,0.01,0.00,26.06,29.32,32.01,14.43,47.48,1023.95,2027.99,3536.99,3128.00,3551.99,600.19,594.38,4.32,0000 0000 0000 0000 000000
2016-09-05 03:19:39,0.00,0.01,0.00,26.05,29.32,32.01,14.33,47.46,1023.94,2027.99,3536.98,3128.00,3552.01,600.01,594.21,4.37,0000 0000 0000 0000 000000
2016-09-05 03:24:41,0.00,0.01,0.00,26.08,29.30,32.00,14.42,47.67,1023.94,2027.99,3536.97,3128.01,3552.01,600.13,594.34,4.42,0000 0000 0000 0000 000000
2016-09-05 03:29:42,0.00,0.01,0.00,26.09,29.30,31.96,14.35,47.56,1023.93,2027.99,3536.85,3128.00,3552.00,599.99,594.11,4.47,0000 0000 0000 0000 000000
2016-09-05 03:34:43,0.00,0.01,0.00,26.10,29.28,31.90,14.43,47.52,1023.93,2027.99,3536.36,3128.00,3552.00,600.68,594.67,4.52,0000 0000 0000 0000 000000
2016-09-05 03:39:45,0.00,0.01,0.00,26.07,29.27,31.92,14.34,47.51,1023.93,2028.00,3536.24,3128.01,3552.00,600.00,594.03,4.57,0000 0000 0000 0000 000000
2016-09-05 03:44:46,0.00,0.01,0.00,26.07,29.27,31.95,14.42,47.50,1023.89,2028.00,3536.05,3128.02,3552.00,600.02,594.14,4.62,0000 0000 0000 0000 000000
2016-09-05 03:49:47,0.00,0.01,0.00,26.11,29.26,31.87,14.37,47.42,1023.91,2028.01,3536.01,3128.01,3552.00,600.09,594.19,4.67,0000 0000 0000 0000 000000
2016-09-05 03:54:49,0.00,0.01,0.00,26.10,29.25,31.86,14.35,47.35,1023.76,2028.02,3536.00,3128.02,3552.00,599.78,593.68,4.73,0000 0000 0000 0000 000000
2016-09-05 03:59:50,0.00,0.01,0.00,26.08,29.25,31.83,14.46,47.35,1023.58,2028.05,3536.00,3128.03,3552.00,600.27,594.11,4.78,0000 0000 0000 0000 000000
2016-09-05 04:04:51,-0.00,0.01,0.00,26.07,29.25,31.85,14.37,47.29,1023.54,2028.06,3536.00,3128.01,3551.99,600.20,594.11,4.83,0000 0000 0000 0000 000000
2016-09-05 04:09:52,0.01,0.02,0.00,26.10,29.23,31.85,14.41,47.54,1023.47,2028.15,3535.99,3128.01,3551.99,600.33,594.09,4.88,0000 0000 0000 0000 000000
2016-09-05 04:14:54,0.02,0.02,0.00,26.06,29.22,31.82,14.37,47.58,1023.46,2028.25,3535.99,3128.03,3551.99,599.74,593.64,4.93,0000 0000 0000 0000 000000
2016-09-05 04:19:55,-0.01,0.02,0.00,26.07,29.22,31.82,14.37,47.51,1023.45,2028.19,3535.94,3128.01,3551.99,600.02,593.88,4.98,0000 0000 0000 0000 000000
2016-09-05 04:24:56,0.03,0.02,0.00,26.08,29.22,31.81,14.43,47.50,1023.46,2028.40,3535.85,3128.02,3551.99,599.85,593.73,5.03,0000 0000 0000 0000 000000
2016-09-05 04:29:57,0.01,0.02,0.00,26.05,29.21,31.83,14.34,47.45,1023.45,2028.50,3535.45,3128.00,3551.99,600.08,594.07,5.08,0000 0000 0000 0000 000000
2016-09-05 04:34:58,0.02,0.02,0.00,26.06,29.20,31.81,14.36,47.46,1023.45,2028.77,3535.25,3128.00,3551.99,599.69,593.66,5.13,0000 0000 0000 0000 000000
2016-09-05 04:39:59,0.00,0.02,0.00,26.07,29.20,31.80,14.42,47.52,1023.45,2028.78,3535.04,3128.01,3551.98,600.06,593.90,5.18,0000 0000 0000 0000 000000
2016-09-05 04:45:01,0.01,0.02,0.00,26.07,29.20,31.78,14.42,47.59,1023.45,2028.86,3535.01,3128.01,3551.98,600.02,593.93,5.23,0000 0000 0000 0000 000000
2016-09-05 04:50:02,-0.02,0.02,0.00,26.07,29.20,31.78,14.31,47.37,1023.45,2028.72,3535.00,3128.00,3551.90,600.27,594.24,5.28,0000 0000 0000 0000 000000
2016-09-05 04:55:03,0.02,0.02,0.00,26.07,29.20,31.77,14.38,47.50,1023.45,2028.71,3534.99,3128.00,3551.87,599.89,593.78,5.33,0000 0000 0000 0000 000000
2016-09-05 05:00:05,0.01,0.02,0.00,26.09,29.20,31.76,14.38,47.47,1023.45,2028.88,3534.99,3128.00,3551.92,599.72,593.70,5.38,0000 0000 0000 0000 000000
2016-09-05 05:05:06,0.01,0.02,0.00,26.10,29.19,31.74,14.43,47.52,1023.30,2028.92,3534.98,3128.00,3551.96,599.93,593.70,5.43,0000 0000 0000 0000 000000
2016-09-05 05:10:07,0.00,0.02,0.00,26.06,29.19,31.76,14.42,47.58,1022.99,2028.94,3534.98,3128.00,3551.92,600.23,593.74,5.48,0000 0000 0000 0000 000000
2016-09-05 05:15:08,-0.00,0.02,0.00,26.03,29.18,31.79,14.40,47.58,1022.97,2028.93,3534.95,3128.00,3551.82,600.25,593.94,5.53,0000 0000 0000 0000 000000
2016-09-05 05:20:09,0.00,0.02,0.00,26.06,29.17,31.78,14.43,47.69,1022.97,2028.96,3534.92,3128.00,3551.89,600.20,593.86,5.58,0000 0000 0000 0000 000000
2016-09-05 05:25:11,0.01,0.02,0.00,26.06,29.17,31.75,14.38,47.44,1022.97,2028.97,3534.64,3128.00,3551.74,599.71,593.34,5.63,0000 0000 0000 0000 000000
2016-09-05 05:30:12,0.00,0.02,0.00,26.05,29.17,31.76,14.37,47.52,1022.98,2028.98,3534.38,3128.00,3551.53,599.92,593.53,5.68,0000 0000 0000 0000 000000
2016-09-05 05:35:13,-0.00,0.02,0.00,26.04,29.17,31.78,14.36,47.48,1022.97,2028.97,3534.35,3128.00,3551.64,599.82,593.53,5.73,0000 0000 0000 0000 000000
2016-09-05 05:40:14,0.00,0.02,0.00,26.06,29.17,31.74,14.36,47.36,1022.96,2028.99,3534.13,3128.01,3551.51,599.99,593.62,5.78,0000 0000 0000 0000 000000
2016-09-05 05:45:15,0.00,0.02,0.00,26.07,29.17,31.74,14.30,47.28,1022.96,2028.97,3534.03,3128.00,3551.21,600.00,593.53,5.83,0000 0000 0000 0000 000000
2016-09-05 05:50:16,0.00,0.02,0.00,26.06,29.17,31.75,14.28,47.39,1022.90,2028.98,3534.01,3128.00,3551.12,599.82,593.46,5.88,0000 0000 0000 0000 000000
2016-09-05 05:55:18,0.00,0.02,0.00,26.05,29.17,31.74,14.33,47.47,1022.81,2028.97,3534.00,3128.00,3551.03,599.72,593.30,5.93,0000 0000 0000 0000 000000
2016-09-05 06:00:19,-0.00,0.02,0.00,26.06,29.17,31.76,14.39,47.54,1022.54,2028.98,3534.00,3128.00,3551.06,600.17,593.54,5.98,0000 0000 0000 0000 000000
2016-09-05 06:05:21,0.00,0.02,0.00,26.07,29.18,31.73,14.36,47.52,1022.61,2028.99,3533.98,3127.99,3551.00,599.88,593.30,6.03,0000 0000 0000 0000 000000
2016-09-05 06:10:22,0.00,0.02,0.00,26.07,29.18,31.71,14.39,47.61,1022.55,2028.97,3533.77,3127.98,3550.99,600.30,593.64,6.08,0000 0000 0000 0000 000000
2016-09-05 06:15:24,-0.00,0.02,0.00,26.07,29.18,31.70,14.34,47.52,1022.50,2028.97,3533.74,3127.98,3550.98,599.77,593.06,6.13,0000 0000 0000 0000 000000
2016-09-05 06:20:25,0.01,0.02,0.00,26.07,29.19,31.71,14.31,47.73,1022.48,2028.98,3533.33,3127.98,3550.99,599.69,592.89,6.18,0000 0000 0000 0000 000000
2016-09-05 06:25:27,0.00,0.02,0.00,26.07,29.19,31.71,14.32,47.50,1022.48,2028.97,3533.06,3127.99,3550.96,600.23,593.65,6.23,0000 0000 0000 0000 000000
2016-09-05 06:30:28,0.00,0.02,0.00,26.08,29.19,31.70,14.42,47.56,1022.48,2028.97,3533.00,3127.99,3550.89,600.13,593.25,6.28,0000 0000 0000 0000 000000
2016-09-05 06:35:29,0.00,0.02,0.00,26.10,29.20,31.71,14.34,47.45,1022.48,2028.98,3533.00,3127.98,3550.82,599.86,593.04,6.33,0000 0000 0000 0000 000000
2016-09-05 06:40:31,0.00,0.02,0.00,26.08,29.20,31.70,14.39,47.59,1022.44,2028.99,3533.00,3127.96,3550.54,600.10,593.34,6.38,0000 0000 0000 0000 000000
2016-09-05 06:45:32,0.00,0.02,0.00,26.07,29.20,31.73,14.32,47.48,1022.37,2028.98,3532.97,3127.94,3550.24,599.91,593.34,6.43,0000 0000 0000 0000 000000
2016-09-05 06:50:33,-0.00,0.02,0.00,26.07,29.20,31.75,14.31,47.60,1022.35,2028.98,3532.96,3127.96,3550.18,599.84,593.09,6.48,0000 0000 0000 0000 000000
2016-09-05 06:55:35,-0.00,0.02,0.00,26.10,29.20,31.73,14.35,47.43,1022.34,2028.98,3532.92,3127.97,3550.13,599.67,592.82,6.53,0000 0000 0000 0000 000000
2016-09-05 07:00:36,0.00,0.02,0.00,26.08,29.20,31.72,14.43,47.69,1022.10,2028.98,3532.88,3127.96,3550.07,600.32,593.37,6.58,0000 0000 0000 0000 000000
2016-09-05 07:05:38,0.00,0.02,0.00,26.07,29.20,31.74,14.35,47.31,1022.04,2028.97,3532.66,3127.91,3550.02,599.82,592.83,6.63,0000 0000 0000 0000 000000
2016-09-05 07:10:39,0.00,0.02,0.00,26.08,29.20,31.75,14.29,47.39,1022.00,2028.97,3532.41,3127.89,3550.00,599.92,592.93,6.68,0000 0000 0000 0000 000000
2016-09-05 07:15:40,0.00,0.02,0.00,26.06,29.20,31.76,14.34,47.47,1021.99,2028.95,3532.11,3127.82,3550.01,599.82,592.82,6.73,0000 0000 0000 0000 000000
2016-09-05 07:20:42,-0.00,0.02,0.00,26.05,29.20,31.78,14.35,47.48,1022.00,2028.97,3532.04,3127.85,3550.01,599.86,592.91,6.78,0000 0000 0000 0000 000000
2016-09-05 07:25:43,0.00,0.02,0.00,26.08,29.20,31.74,14.45,47.61,1022.00,2028.98,3532.02,3127.84,3550.00,600.06,593.05,6.83,0000 0000 0000 0000 000000
2016-09-05 07:30:44,-0.00,0.02,0.00,26.07,29.20,31.74,14.40,47.47,1021.99,2028.98,3532.00,3127.85,3550.00,600.22,593.19,6.88,0000 0000 0000 0000 000000
2016-09-05 07:35:45,0.00,0.02,0.00,26.07,29.20,31.77,14.40,47.61,1021.99,2028.98,3532.00,3127.75,3550.00,599.89,593.09,6.93,0000 0000 0000 0000 000000
2016-09-05 07:40:47,0.00,0.02,0.00,26.06,29.20,31.77,14.37,47.55,1021.98,2028.99,3532.00,3127.71,3550.00,600.03,593.12,6.98,0000 0000 0000 0000 000000
2016-09-05 07:45:48,-0.00,0.02,0.00,26.08,29.19,31.76,14.30,47.31,1021.95,2028.97,3532.00,3127.81,3550.00,599.85,592.73,7.03,0000 0000 0000 0000 000000
2016-09-05 07:50:50,0.00,0.02,0.00,26.09,29.18,31.71,14.42,47.45,1021.90,2028.98,3531.99,3127.73,3550.00,600.20,593.14,7.09,0000 0000 0000 0000 000000
2016-09-05 07:55:51,-0.00,0.02,0.00,26.07,29.17,31.75,14.39,47.46,1021.73,2028.99,3531.99,3127.84,3550.00,600.33,593.12,7.14,0000 0000 0000 0000 000000
2016-09-05 08:00:52,0.00,0.02,0.00,26.04,29.17,31.77,14.35,47.45,1021.62,2028.98,3531.99,3127.81,3550.00,599.96,592.91,7.19,0000 0000 0000 0000 000000
2016-09-05 08:05:54,0.01,0.02,0.00,26.06,29.17,31.75,14.38,47.51,1021.54,2028.97,3531.83,3127.41,3550.00,599.93,592.77,7.24,0000 0000 0000 0000 000000
2016-09-05 08:10:55,0.01,0.03,0.00,26.10,29.17,31.71,14.34,47.54,1021.52,2028.99,3531.28,3127.18,3549.96,600.09,592.79,7.29,0000 0000 0000 0000 000000
2016-09-05 08:15:56,-0.01,0.03,0.00,26.05,29.17,31.68,14.29,47.53,1021.51,2028.98,3531.22,3127.29,3549.99,599.84,592.69,7.34,0000 0000 0000 0000 000000
2016-09-05 08:20:58,0.01,0.03,0.00,25.84,29.17,31.82,14.45,47.58,1021.50,2028.98,3531.03,3127.11,3549.92,600.20,593.27,7.39,0000 0000 0000 0000 000000
2016-09-05 08:25:59,-0.00,0.03,0.00,25.71,29.16,31.95,14.46,47.69,1021.50,2028.99,3531.01,3127.10,3549.89,600.35,593.53,7.44,0000 0000 0000 0000 000000
2016-09-05 08:31:00,-0.01,0.03,0.00,25.64,29.15,31.98,14.47,47.66,1021.50,2028.99,3531.01,3127.31,3549.94,599.89,593.55,7.49,0000 0000 0000 0000 000000
2016-09-05 08:36:01,0.00,0.03,0.00,25.59,29.15,31.97,14.40,47.51,1021.50,2028.99,3531.00,3127.35,3549.96,600.00,593.73,7.54,0000 0000 0000 0000 000000
2016-09-05 08:41:02,-0.00,0.03,0.00,25.56,29.13,31.95,14.44,47.46,1021.50,2028.99,3531.00,3127.45,3549.98,600.24,594.02,7.59,0000 0000 0000 0000 000000
2016-09-05 08:46:04,-0.01,0.02,0.00,25.53,29.12,31.93,14.28,47.51,1021.50,2028.99,3531.01,3127.75,3549.99,599.44,593.42,7.64,0000 0000 0000 0000 000000
2016-09-05 08:51:05,0.00,0.02,0.00,25.51,29.10,31.91,14.43,47.62,1021.50,2028.99,3531.00,3127.81,3549.98,599.96,593.67,7.69,0000 0000 0000 0000 000000
2016-09-05 08:56:06,0.00,0.02,0.00,25.48,29.09,31.90,14.44,47.60,1021.50,2028.99,3531.00,3127.92,3549.98,600.05,593.98,7.74,0000 0000 0000 0000 000000
2016-09-05 09:01:08,0.00,0.02,0.00,25.46,29.07,31.86,14.42,47.64,1021.47,2029.00,3531.00,3127.94,3549.97,599.80,593.61,7.79,0000 0000 0000 0000 000000
2016-09-05 09:06:09,0.00,0.02,0.00,25.43,29.05,31.86,14.56,47.86,1021.37,2029.00,3530.99,3127.94,3549.97,600.35,594.28,7.84,0000 0000 0000 0000 000000
2016-09-05 09:11:10,0.00,0.02,0.00,25.41,29.03,31.86,14.36,47.57,1021.17,2029.01,3530.98,3127.97,3549.99,600.17,594.09,7.89,0000 0000 0000 0000 000000
2016-09-05 09:16:11,0.00,0.02,0.00,25.40,29.01,31.81,14.40,47.73,1021.05,2029.05,3530.99,3127.98,3549.99,599.81,593.59,7.94,0000 0000 0000 0000 000000
2016-09-05 09:21:13,0.01,0.03,0.00,25.38,29.00,31.75,14.35,47.57,1021.02,2029.17,3530.99,3127.99,3549.99,600.11,594.01,7.99,0000 0000 0000 0000 000000
2016-09-05 09:26:14,0.04,0.03,0.00,25.36,28.97,31.73,14.47,47.71,1021.01,2029.54,3530.99,3128.00,3549.99,600.27,594.12,8.04,0000 0000 0000 0000 000000
2016-09-05 09:31:15,0.02,0.03,0.00,25.35,28.95,31.71,14.40,47.55,1021.01,2029.83,3530.99,3128.00,3550.00,599.84,593.73,8.09,0000 0000 0000 0000 000000
2016-09-05 09:36:17,0.00,0.03,0.00,25.33,28.93,31.71,14.44,47.69,1021.01,2029.89,3530.99,3128.01,3550.01,600.40,594.41,8.14,0000 0000 0000 0000 000000
2016-09-05 09:41:18,0.00,0.03,0.00,25.31,28.91,31.68,14.45,47.52,1021.01,2029.97,3530.99,3128.09,3550.10,599.74,593.84,8.19,0000 0000 0000 0000 000000
2016-09-05 09:46:20,-0.01,0.03,0.00,25.30,28.90,31.65,14.49,47.55,1021.00,2029.98,3530.99,3128.24,3550.30,599.60,593.68,8.24,0000 0000 0000 0000 000000
2016-09-05 09:51:21,-0.01,0.03,0.00,25.28,28.87,31.63,14.36,47.68,1020.96,2029.99,3530.99,3128.45,3550.46,599.66,593.67,8.29,0000 0000 0000 0000 000000
2016-09-05 09:56:22,0.01,0.03,0.00,25.27,28.85,31.63,14.48,47.67,1020.85,2029.99,3530.99,3128.48,3550.41,600.24,594.12,8.34,0000 0000 0000 0000 000000
2016-09-05 10:01:24,0.01,0.03,0.00,25.26,28.84,31.61,14.43,47.73,1020.68,2029.99,3530.79,3128.20,3550.13,600.12,594.10,8.39,0000 0000 0000 0000 000000
2016-09-05 10:06:25,0.01,0.03,0.00,25.25,28.82,31.58,14.47,47.70,1020.58,2030.00,3530.16,3128.06,3550.03,600.26,594.12,8.44,0000 0000 0000 0000 000000
2016-09-05 10:11:27,0.00,0.03,0.00,25.23,28.80,31.58,14.34,47.56,1020.55,2030.01,3529.98,3128.00,3550.00,599.56,593.41,8.49,0000 0000 0000 0000 000000
2016-09-05 10:16:28,0.01,0.03,0.00,25.22,28.79,31.57,14.48,47.63,1020.53,2030.03,3529.54,3128.00,3549.98,600.33,594.18,8.54,0000 0000 0000 0000 000000
2016-09-05 10:21:29,0.01,0.03,0.00,25.21,28.77,31.55,14.44,47.54,1020.52,2030.11,3529.07,3128.00,3549.98,600.16,593.99,8.59,0000 0000 0000 0000 000000
2016-09-05 10:26:30,0.01,0.03,0.00,25.20,28.75,31.52,14.47,47.63,1020.52,2030.25,3529.00,3128.00,3549.94,600.45,594.32,8.64,0000 0000 0000 0000 000000
2016-09-05 10:31:31,0.00,0.03,0.00,25.17,28.74,31.52,14.44,47.43,1020.52,2030.37,3529.00,3127.98,3549.73,600.24,594.21,8.69,0000 0000 0000 0000 000000
2016-09-05 10:36:32,0.03,0.03,0.00,25.17,28.72,31.48,14.42,47.61,1020.52,2030.64,3528.99,3127.98,3549.73,600.26,594.22,8.74,0000 0000 0000 0000 000000
2016-09-05 10:41:34,0.02,0.03,0.00,25.15,28.70,31.49,14.46,47.48,1020.49,2030.92,3528.99,3127.99,3549.84,599.83,593.90,8.79,0000 0000 0000 0000 000000
2016-09-05 10:46:35,0.00,0.04,0.00,25.15,28.70,31.49,14.36,47.38,1020.44,2030.98,3528.97,3127.99,3549.90,599.73,593.66,8.84,0000 0000 0000 0000 000000
2016-09-05 10:51:36,0.00,0.04,0.00,25.13,28.67,31.46,14.38,47.31,1020.35,2030.98,3528.95,3127.99,3549.93,599.83,593.81,8.89,0000 0000 0000 0000 000000
2016-09-05 10:56:38,0.00,0.04,0.00,25.12,28.67,31.45,14.35,47.36,1020.31,2030.99,3528.89,3127.99,3549.90,600.07,594.12,8.94,0000 0000 0000 0000 000000
2016-09-05 11:01:39,-0.00,0.04,0.00,25.12,28.65,31.44,14.39,47.46,1020.19,2030.99,3528.77,3127.99,3549.85,600.03,593.90,8.99,0000 0000 0000 0000 000000
2016-09-05 11:06:41,0.01,0.04,0.00,25.11,28.65,31.45,14.43,47.42,1020.10,2030.99,3528.37,3127.99,3549.70,599.66,593.41,9.04,0000 0000 0000 0000 000000
2016-09-05 11:11:42,0.00,0.04,0.00,25.10,28.65,31.49,14.44,47.45,1020.08,2030.99,3528.08,3127.99,3549.56,599.86,593.74,9.09,0000 0000 0000 0000 000000
2016-09-05 11:16:43,-0.00,0.04,0.00,25.09,28.63,31.47,14.41,47.27,1020.06,2030.99,3528.04,3127.99,3549.55,600.01,593.86,9.14,0000 0000 0000 0000 000000
2016-09-05 11:21:45,0.00,0.04,0.00,25.09,28.62,31.44,14.41,47.33,1020.05,2030.99,3528.04,3128.00,3549.54,600.07,593.92,9.19,0000 0000 0000 0000 000000
2016-09-05 11:26:46,0.00,0.04,0.00,25.09,28.62,31.45,14.44,47.28,1020.06,2030.99,3528.00,3128.00,3549.33,600.47,594.32,9.24,0000 0000 0000 0000 000000
2016-09-05 11:31:48,0.00,0.04,0.00,25.07,28.62,31.45,14.43,47.42,1020.06,2030.99,3528.00,3128.00,3549.11,600.17,594.05,9.29,0000 0000 0000 0000 000000
2016-09-05 11:36:49,0.00,0.04,0.00,25.07,28.62,31.45,14.50,47.48,1020.05,2031.00,3528.00,3128.00,3549.03,600.60,594.35,9.34,0000 0000 0000 0000 000000
2016-09-05 11:41:50,0.00,0.04,0.00,25.07,28.62,31.47,14.44,47.57,1020.05,2031.00,3527.97,3128.00,3549.01,600.32,594.07,9.39,0000 0000 0000 0000 000000
2016-09-05 11:46:51,0.00,0.04,0.00,25.05,28.62,31.47,14.43,47.71,1020.05,2031.00,3527.92,3128.00,3549.00,599.98,593.92,9.45,0000 0000 0000 0000 000000
2016-09-05 11:51:53,0.00,0.04,0.00,25.05,28.62,31.46,14.35,47.46,1020.04,2031.00,3527.67,3127.98,3549.00,599.74,593.78,9.50,0000 0000 0000 0000 000000
2016-09-05 11:56:54,0.01,0.04,0.00,25.05,28.61,31.48,14.46,47.63,1020.04,2031.00,3527.38,3127.96,3548.96,599.91,593.81,9.55,0000 0000 0000 0000 000000
2016-09-05 12:01:55,0.05,0.04,0.00,25.03,28.62,31.46,14.44,47.57,1020.04,2030.99,3526.66,3127.25,3548.19,599.92,593.98,9.60,0000 0000 0000 0000 000000
2016-09-05 12:06:56,0.05,0.04,0.00,25.02,28.62,31.49,14.42,47.51,1020.04,2030.99,3525.54,3126.57,3547.44,599.97,593.87,9.65,0000 0000 0000 0000 000000
2016-09-05 12:11:57,0.70,0.06,0.00,25.02,28.62,31.49,14.37,47.46,1020.04,2030.98,3515.93,3118.08,3538.26,600.10,594.13,9.70,0000 0000 0000 0000 000000
2016-09-05 12:16:59,2.13,0.13,0.00,25.02,28.62,31.51,14.48,47.58,1020.04,2030.87,3483.47,3089.68,3507.97,600.27,594.22,9.75,0000 0000 0000 0000 000000
2016-09-05 12:22:00,5.35,0.35,0.00,25.02,28.62,31.50,14.45,47.62,1020.02,2030.20,3391.53,3009.97,3422.52,600.10,594.18,9.80,0000 0000 0000 0000 000000
2016-09-05 12:27:01,3.76,0.57,0.07,24.99,28.61,31.45,14.40,47.68,1019.99,2030.01,3313.35,2943.37,3351.06,599.51,593.73,9.85,0000 0000 0000 0000 000000
2016-09-05 12:32:02,2.73,0.73,2.00,24.94,28.61,31.29,14.40,47.88,1019.96,2030.00,3260.01,2898.30,3302.74,599.71,593.81,9.90,0000 0000 0000 0000 000000
2016-09-05 12:37:04,2.76,0.86,2.00,24.98,28.62,31.23,14.42,48.08,1019.94,2029.99,3211.25,2857.36,3258.56,599.98,594.01,9.95,0000 0000 0000 0000 000000
2016-09-05 12:42:05,1.60,0.97,2.00,25.03,28.62,31.25,14.48,48.04,1019.94,2029.94,3177.96,2830.17,3229.17,600.20,594.14,10.00,0000 0000 0000 0000 000000
2016-09-05 12:47:06,0.95,1.03,2.00,25.09,28.63,31.29,14.42,48.12,1019.89,2029.76,3157.87,2814.78,3212.18,599.68,593.45,10.05,0000 0000 0000 0000 000000
2016-09-05 12:52:07,0.81,1.07,2.00,25.17,28.65,31.35,14.38,48.13,1019.81,2029.37,3142.20,2802.79,3199.00,599.98,593.55,10.10,0000 0000 0000 0000 000000
2016-09-05 12:57:09,0.71,1.11,2.00,25.27,28.67,31.39,14.36,48.03,1019.62,2029.17,3128.74,2792.24,3187.53,600.08,593.29,10.15,0000 0000 0000 0000 000000
2016-09-05 13:02:10,0.79,1.15,2.00,25.30,28.70,31.45,14.41,48.03,1019.59,2029.05,3114.41,2780.92,3175.10,600.03,593.23,10.20,0000 0000 0000 0000 000000